User: anonymous   Login
Location: Bretagne
(43.8474°N, 0.4650°W)
Time: 15:51:42
(UTC+00:00)
Language:

Cosmos 1992 Rocket - Orbit

View from above orbital plane
View from above orbital plane
View from above satellite
View from above satellite

Ground track
Ground track

The orbit is defined by the following mean orbital elements,

1 19770U          26076.32597131 +.00000000 +00000-0 +56674-4 0 00001
2 19770  74.0429 276.8826 0005575 280.7582 251.8269 14.40311514    02
Epoch (UTC): 17 March 2026 07:49:23
Eccentricity: 0.0005575
inclination: 74.0429°
perigee height: 753 km
apogee height: 761 km
right ascension of ascending node: 276.8826°
argument of perigee: 280.7582°
revolutions per day: 14.40311514
mean anomaly at epoch: 251.8269°

The dashed part of the orbit path shows where the satellite is in the earth's shadow,  

DLR